Hundvaag 1 weather for Nov 2001
Month no. 173
Obs.
Da.
Temp. Dew Point Precip. Wind
Speed
Wind gusts Cloud cover Press. Humidity Wind dir. Sunny OPT
01.11.2001 6,1   9,2     0 1017,7        
02.11.2001 10,4   2,4     0 1021,5        
03.11.2001 9,9   2,9     0 1018,3        
04.11.2001 9,3   1,5     0 1009,2        
05.11.2001 3,0   9,2     8 1012,8     1  
06.11.2001 3,9   11,8     0 1002,9     1  
07.11.2001 4,6   3,2     0 1001,3     1  
08.11.2001 3,0   1,8     2 1000,0     1  
09.11.2001 2,3   0,0     10 1014,7     1  
10.11.2001 7,7   6,1     0 1013,6        
11.11.2001 7,3   9,4     0 1010,9        
12.11.2001 3,9   4,7     1 1010,7        
13.11.2001 3,3   0,7     2 1014,9        
14.11.2001 1,0   0,0     10 1023,1     1  
15.11.2001 9,7   3,1     0 1018,9     1  
16.11.2001 6,2   0,1     0 1025,3        
17.11.2001 9,0   5,8     3 1023,5     1  
18.11.2001 9,1   0,3     1 1018,5        
19.11.2001 6,2   3,3     10 1018,9     1  
20.11.2001 4,6   0,0     0 1018,8        
21.11.2001 7,0   10,1     0 1010,8        
22.11.2001 3,5   3,2     0 1006,4        
23.11.2001 1,7   0,6     10 1016,7     1  
24.11.2001 4,6   1,5     0 1014,3        
25.11.2001 8,9   0,8     0 1010,1        
26.11.2001 5,6   14,8     3 1009,1     1  
27.11.2001 3,8   0,7     10 1000,8     1  
28.11.2001 1,7   29,4     4 1006,1     1  
29.11.2001 3,0   1,7     0 1010,1        
30.11.2001 8,4   0,8     0 1010,8        
                       
Avrg/Sum 5,6   139,1     2,5 1013,0     13